Regional Weather Roundup
Issued by NWS

Home | Current Version | Previous Version | Text Only | Print | Product List | Glossary On
Versions: 1 2 3 4 5 6 7 8 9 10 11 12 13 14 15 16 17 18 19 20 21 22 23 24 25 26 27 28 29 30 31 32 33 34 35 36 37 38 39 40 41 42 43 44 45 46 47 48 49 50
000
ASUS45 KREV 260410
RWRNV
NEVADA REGIONAL WEATHER ROUNDUP
NATIONAL WEATHER SERVICE RENO NV
900 PM PDT MON MAY 25 2015

NOTE: "FAIR" INDICATES FEW OR NO CLOUDS BELOW 12,000 FEET WITH NO
SIGNIFICANT WEATHER AND/OR OBSTRUCTIONS TO VISIBILITY.

NVZ001-003-004-260500-
WESTERN NEVADA

CITY           SKY/WX    TMP DP  RH WIND       PRES   REMARKS
RENO           MOCLDY    58  52  80 SW3       30.01S
CARSON CITY    FAIR      57  45  62 NW8       30.01R
MINDEN         FAIR      59  45  58 N8        30.02
SLIDE MTN        N/A     39  32  75 W16         N/A
PYRAMID LAKE     N/A     64 N/A N/A W3          N/A
FALLON         CLOUDY    60  49  66 NE5       29.98R
LOVELOCK       PTCLDY    57  49  74 NE7       29.97S
HAWTHORNE      CLOUDY    64  46  52 W12       30.01R
$$

NVZ002-CAZ072-073-260500-
NORTHERN AND CENTRAL SIERRA

CITY           SKY/WX    TMP DP  RH WIND       PRES   REMARKS
S. LAKE TAHOE  CLEAR     51  43  74 CALM      30.08R
TRUCKEE        PTCLDY    48  45  87 SE6       30.08R
SQUAW VLY 8000   N/A     45  37  76 W8          N/A
BLUE CANYON    MOCLDY    55  42  61 CALM      30.06S
MAMMOTH LAKES  FAIR      52  37  58 W5        30.09R
BRIDGEPORT     FAIR      52  37  56 CALM      30.07R
$$

NVZ030-031-036-260500-
NORTHERN NEVADA

CITY           SKY/WX    TMP DP  RH WIND       PRES   REMARKS
ELKO           PTCLDY    52  46  80 NE5       30.00S
WINNEMUCCA     MOCLDY    54  46  74 S8        29.97R
WENDOVER       MOCLDY    55  48  76 S8        29.97S
$$

NVZ035-037-260500-
CENTRAL NEVADA

CITY           SKY/WX    TMP DP  RH WIND       PRES   REMARKS
ELY            CLOUDY    55  40  56 CALM      30.04R
EUREKA           N/A     50  44  80 NW8       30.09R
$$

NVZ013-014-260500-
SOUTH CENTRAL NEVADA

CITY           SKY/WX    TMP DP  RH WIND       PRES   REMARKS
TONOPAH        CLOUDY    61  42  49 W10       30.02R
$$

NVZ017-020-022-260500-
SOUTHERN NEVADA

CITY           SKY/WX    TMP DP  RH WIND       PRES   REMARKS
LAS VEGAS      MOCLDY    83  41  22 CALM      29.78R
N. LAS VEGAS   PTCLDY    81  41  24 SE8       29.81S
NELLIS AFB     PTCLDY    82  46  27 E7        29.80R
HENDERSON      PTCLDY    82  42  24 SE13      29.84S
MERCURY        MOCLDY    77  33  20 S6        29.86R
$$



USA.gov is the U.S. government's official web portal to all federal, state and local government web resources and services.